datetime,inflow
1991-01-01,36.84
1991-01-02,36.84
1991-01-03,36.84
1991-01-04,36.84
1991-01-05,36.84
1991-01-06,36.84
1991-01-07,36.84
1991-01-08,36.84
1991-01-09,36.84
1991-01-10,36.84
1991-01-11,36.84
1991-01-12,36.84
1991-01-13,36.84
1991-01-14,38.96
1991-01-15,38.96
1991-01-16,38.96
1991-01-17,38.96
1991-01-18,38.96
1991-01-19,38.96
1991-01-20,38.96
1991-01-21,38.96
1991-01-22,38.96
1991-01-23,38.96
1991-01-24,38.96
1991-01-25,27.73
1991-01-26,27.73
1991-01-27,27.73
1991-01-28,27.73
1991-01-29,18.49
1991-01-30,18.49
1991-01-31,18.49
1991-02-01,18.49
1991-02-02,18.49
1991-02-03,18.49
1991-02-04,18.49
1991-02-05,18.49
1991-02-06,18.49
1991-02-07,18.49
1991-02-08,18.49
1991-02-09,18.49
1991-02-10,18.49
1991-02-11,18.49
1991-02-12,18.49
1991-02-13,18.49
1991-02-14,18.49
1991-02-15,18.49
1991-02-16,67.34
1991-02-17,67.34
1991-02-18,67.34
1991-02-19,67.34
1991-02-20,67.34
1991-02-21,67.34
1991-02-22,67.34
1991-02-23,15.12
1991-02-24,15.12
1991-02-25,15.12
1991-02-26,15.12
1991-02-27,15.12
1991-02-28,15.12
1991-03-01,
1991-03-02,
1991-03-03,
1991-03-04,
1991-03-05,
1991-03-06,
1991-03-07,
1991-03-08,
1991-03-09,
1991-03-10,
1991-03-11,
1991-03-12,
1991-03-13,
1991-03-14,
1991-03-15,
1991-03-16,
1991-03-17,
1991-03-18,
1991-03-19,
1991-03-20,
1991-03-21,
1991-03-22,
1991-03-23,
1991-03-24,
1991-03-25,
1991-03-26,
1991-03-27,
1991-03-28,
1991-03-29,
1991-03-30,
1991-03-31,
1991-04-01,35.61
1991-04-02,35.61
1991-04-03,35.61
1991-04-04,35.61
1991-04-05,35.61
1991-04-06,35.61
1991-04-07,35.61
1991-04-08,35.61
1991-04-09,76.79
1991-04-10,76.79
1991-04-11,76.79
1991-04-12,76.79
1991-04-13,76.79
1991-04-14,76.79
1991-04-15,76.79
1991-04-16,76.79
1991-04-17,76.79
1991-04-18,76.79
1991-04-19,50.42
1991-04-20,50.42
1991-04-21,50.42
1991-04-22,50.42
1991-04-23,50.42
1991-04-24,50.42
1991-04-25,299.47
1991-04-26,299.47
1991-04-27,299.47
1991-04-28,299.47
1991-04-29,299.47
1991-04-30,299.47
1991-05-01,
1991-05-02,
1991-05-03,
1991-05-04,
1991-05-05,
1991-05-06,
1991-05-07,4.35
1991-05-08,4.35
1991-05-09,4.35
1991-05-10,201.66
1991-05-11,201.66
1991-05-12,201.66
1991-05-13,201.66
1991-05-14,201.66
1991-05-15,201.66
1991-05-16,108.83
1991-05-17,108.83
1991-05-18,108.83
1991-05-19,108.83
1991-05-20,108.83
1991-05-21,108.83
1991-05-22,108.83
1991-05-23,108.83
1991-05-24,108.83
1991-05-25,108.83
1991-05-26,108.83
1991-05-27,108.83
1991-05-28,108.83
1991-05-29,108.83
1991-05-30,108.83
1991-05-31,133.11
1991-06-01,133.11
1991-06-02,133.11
1991-06-03,133.11
1991-06-04,
1991-06-05,94.79
1991-06-06,94.79
1991-06-07,94.79
1991-06-08,94.79
1991-06-09,94.79
1991-06-10,94.79
1991-06-11,248.02
1991-06-12,137.42
1991-06-13,137.42
1991-06-14,137.42
1991-06-15,137.42
1991-06-16,137.42
1991-06-17,137.42
1991-06-18,137.42
1991-06-19,29.75
1991-06-20,29.75
1991-06-21,29.75
1991-06-22,29.75
1991-06-23,29.75
1991-06-24,29.75
1991-06-25,29.75
1991-06-26,29.75
1991-06-27,29.75
1991-06-28,29.75
1991-06-29,21.68
1991-06-30,21.68
1991-07-01,111.17
1991-07-02,111.17
1991-07-03,111.17
1991-07-04,111.17
1991-07-05,111.17
1991-07-06,111.17
1991-07-07,111.17
1991-07-08,111.17
1991-07-09,-10.07
1991-07-10,-10.07
1991-07-11,-10.07
1991-07-12,-10.07
1991-07-13,-10.07
1991-07-14,-10.07
1991-07-15,-10.07
1991-07-16,-10.07
1991-07-17,-10.07
1991-07-18,-10.07
1991-07-19,-10.07
1991-07-20,-10.07
1991-07-21,-10.07
1991-07-22,-10.07
1991-07-23,-10.07
1991-07-24,-10.07
1991-07-25,-10.07
1991-07-26,-10.07
1991-07-27,-10.07
1991-07-28,-10.07
1991-07-29,-10.07
1991-07-30,-10.07
1991-07-31,-10.07
1991-08-01,-10.07
1991-08-02,-10.07
1991-08-03,-10.07
1991-08-04,-10.07
1991-08-05,-10.07
1991-08-06,-10.07
1991-08-07,-10.07
1991-08-08,-10.07
1991-08-09,-10.07
1991-08-10,-10.07
1991-08-11,-10.07
1991-08-12,-10.07
1991-08-13,-10.07
1991-08-14,-10.07
1991-08-15,-10.07
1991-08-16,-10.07
1991-08-17,-10.07
1991-08-18,-10.07
1991-08-19,-10.07
1991-08-20,-10.07
1991-08-21,-10.07
1991-08-22,-10.07
1991-08-23,-10.07
1991-08-24,-10.07
1991-08-25,-10.07
1991-08-26,-10.07
1991-08-27,-10.07
1991-08-28,-10.07
1991-08-29,-10.07
1991-08-30,-10.07
1991-08-31,-10.07
1991-09-01,-10.07
1991-09-02,-10.07
1991-09-03,-10.07
1991-09-04,-10.07
1991-09-05,-10.07
1991-09-06,-10.07
1991-09-07,-10.07
1991-09-08,-10.07
1991-09-09,-10.07
1991-09-10,-10.07
1991-09-11,-10.07
1991-09-12,-10.07
1991-09-13,-10.07
1991-09-14,-10.07
1991-09-15,-10.07
1991-09-16,-10.07
1991-09-17,-10.07
1991-09-18,-10.07
1991-09-19,-10.07
1991-09-20,-10.07
1991-09-21,-10.07
1991-09-22,-10.07
1991-09-23,-10.07
1991-09-24,-10.07
1991-09-25,-10.07
1991-09-26,-10.07
1991-09-27,-10.07
1991-09-28,-10.07
1991-09-29,-10.07
1991-09-30,-10.07
1991-10-01,-10.07
1991-10-02,-10.07
1991-10-03,-10.07
1991-10-04,-10.07
1991-10-05,-10.07
1991-10-06,-10.07
1991-10-07,-10.07
1991-10-08,-10.07
1991-10-09,-10.07
1991-10-10,-10.07
1991-10-11,-10.07
1991-10-12,-10.07
1991-10-13,-10.07
1991-10-14,-10.07
1991-10-15,-10.07
1991-10-16,-10.07
1991-10-17,-10.07
1991-10-18,-10.07
1991-10-19,-10.07
1991-10-20,-10.07
1991-10-21,-10.07
1991-10-22,-10.07
1991-10-23,-10.07
1991-10-24,-10.07
1991-10-25,-10.07
1991-10-26,-10.07
1991-10-27,-10.07
1991-10-28,-10.07
1991-10-29,-10.07
1991-10-30,-10.07
1991-10-31,-10.07
1991-11-01,-10.07
1991-11-02,-10.07
1991-11-03,-10.07
1991-11-04,-10.07
1991-11-05,-10.07
1991-11-06,-10.07
1991-11-07,-10.07
1991-11-08,-10.07
1991-11-09,-10.07
1991-11-10,-10.07
1991-11-11,-10.07
1991-11-12,-10.07
1991-11-13,-10.07
1991-11-14,-10.07
1991-11-15,-10.07
1991-11-16,-10.07
1991-11-17,-10.07
1991-11-18,-10.07
1991-11-19,-10.07
1991-11-20,-10.07
1991-11-21,-10.07
1991-11-22,-10.07
1991-11-23,-10.07
1991-11-24,-10.07
1991-11-25,-10.07
1991-11-26,-10.07
1991-11-27,-10.07
1991-11-28,-10.07
1991-11-29,-10.07
1991-11-30,-10.07
1991-12-01,-10.07
1991-12-02,-10.07
1991-12-03,-10.07
1991-12-04,-10.07
1991-12-05,-10.07
1991-12-06,-10.07
1991-12-07,0.0
1991-12-08,0.0
1991-12-09,0.0
1991-12-10,0.0
1991-12-11,0.0
1991-12-12,0.0
1991-12-13,0.0
1991-12-14,0.0
1991-12-15,0.0
1991-12-16,0.0
1991-12-17,0.0
1991-12-18,25.21
1991-12-19,25.21
1991-12-20,25.21
1991-12-21,25.21
1991-12-22,25.21
1991-12-23,25.21
1991-12-24,25.21
1991-12-25,25.21
1991-12-26,25.21
1991-12-27,25.21
1991-12-28,25.21
1991-12-29,25.21
1991-12-30,25.21
1991-12-31,25.21
1992-01-01,25.21
1992-01-02,25.21
1992-01-03,25.21
1992-01-04,100.83
1992-01-05,100.83
1992-01-06,100.83
1992-01-07,100.83
1992-01-08,100.83
1992-01-09,100.83
1992-01-10,100.83
1992-01-11,100.83
1992-01-12,100.83
1992-01-13,100.83
1992-01-14,100.83
1992-01-15,75.62
1992-01-16,75.62
1992-01-17,75.62
1992-01-18,75.62
1992-01-19,75.62
1992-01-20,75.62
1992-01-21,75.62
1992-01-22,75.62
1992-01-23,75.62
1992-01-24,75.62
1992-01-25,75.62
1992-01-26,75.62
1992-01-27,75.62
1992-01-28,75.62
1992-01-29,50.42
1992-01-30,50.42
1992-01-31,50.42
1992-02-01,50.42
1992-02-02,50.42
1992-02-03,50.42
1992-02-04,50.42
1992-02-05,50.42
1992-02-06,50.42
1992-02-07,50.42
1992-02-08,50.42
1992-02-09,50.42
1992-02-10,50.42
1992-02-11,50.42
1992-02-12,25.21
1992-02-13,25.21
1992-02-14,6.0
1992-02-15,6.0
1992-02-16,6.0
1992-02-17,6.0
1992-02-18,6.0
1992-02-19,6.0
1992-02-20,34.9
1992-02-21,34.9
1992-02-22,34.9
1992-02-23,34.9
1992-02-24,34.9
1992-02-25,34.9
1992-02-26,34.9
1992-02-27,184.86
1992-02-28,184.86
1992-02-29,184.86
1992-03-01,60.76
1992-03-02,60.76
1992-03-03,60.76
1992-03-04,60.76
1992-03-05,60.76
1992-03-06,60.76
1992-03-07,60.76
1992-03-08,60.76
1992-03-09,60.76
1992-03-10,60.76
1992-03-11,60.76
1992-03-12,60.76
1992-03-13,60.76
1992-03-14,60.76
1992-03-15,60.76
1992-03-16,60.76
1992-03-17,60.76
1992-03-18,60.76
1992-03-19,60.76
1992-03-20,236.95
1992-03-21,82.01
1992-03-22,82.01
1992-03-23,82.01
1992-03-24,82.01
1992-03-25,82.01
1992-03-26,82.01
1992-03-27,82.01
1992-03-28,82.01
1992-03-29,82.01
1992-03-30,82.01
1992-03-31,82.01
1992-04-01,82.01
1992-04-02,18.95
1992-04-03,18.95
1992-04-04,18.95
1992-04-05,18.95
1992-04-06,18.95
1992-04-07,71.84
1992-04-08,71.84
1992-04-09,15.12
1992-04-10,15.12
1992-04-11,15.12
1992-04-12,15.12
1992-04-13,15.12
1992-04-14,15.12
1992-04-15,15.12
1992-04-16,15.12
1992-04-17,-10.66
1992-04-18,-10.66
1992-04-19,-10.66
1992-04-20,-10.66
1992-04-21,-10.66
1992-04-22,-10.66
1992-04-23,-10.66
1992-04-24,20.17
1992-04-25,20.17
1992-04-26,20.17
1992-04-27,20.17
1992-04-28,40.73
1992-04-29,40.73
1992-04-30,40.73
1992-05-01,40.73
1992-05-02,40.73
1992-05-03,40.73
1992-05-04,40.73
1992-05-05,40.73
1992-05-06,40.73
1992-05-07,40.73
1992-05-08,40.73
1992-05-09,40.73
1992-05-10,40.73
1992-05-11,40.73
1992-05-12,40.73
1992-05-13,40.73
1992-05-14,40.73
1992-05-15,40.73
1992-05-16,40.73
1992-05-17,40.73
1992-05-18,40.73
1992-05-19,40.73
1992-05-20,40.73
1992-05-21,40.73
1992-05-22,40.73
1992-05-23,40.73
1992-05-24,40.73
1992-05-25,40.73
1992-05-26,40.73
1992-05-27,40.73
1992-05-28,40.73
1992-05-29,40.73
1992-05-30,40.73
1992-05-31,24.73
1992-06-01,24.73
1992-06-02,24.73
1992-06-03,24.73
1992-06-04,24.73
1992-06-05,24.73
1992-06-06,24.73
1992-06-07,24.73
1992-06-08,24.73
1992-06-09,24.73
1992-06-10,24.73
1992-06-11,24.73
1992-06-12,24.73
1992-06-13,24.73
1992-06-14,24.73
1992-06-15,24.73
1992-06-16,24.73
1992-06-17,1.01
1992-06-18,1.01
1992-06-19,1.01
1992-06-20,1.01
1992-06-21,1.01
1992-06-22,1.01
1992-06-23,1.01
1992-06-24,1.01
1992-06-25,1.01
1992-06-26,1.01
1992-06-27,1.01
1992-06-28,1.01
1992-06-29,1.01
1992-06-30,1.01
1992-07-01,32.6
1992-07-02,32.6
1992-07-03,32.6
1992-07-04,32.6
1992-07-05,32.6
1992-07-06,32.6
1992-07-07,2.51
1992-07-08,2.51
1992-07-09,-129.05
1992-07-10,0.0
1992-07-11,0.0
1992-07-12,-2.02
1992-07-13,-2.02
1992-07-14,18.65
1992-07-15,18.65
1992-07-16,18.65
1992-07-17,18.65
1992-07-18,8.06
1992-07-19,8.06
1992-07-20,8.06
1992-07-21,19.17
1992-07-22,19.17
1992-07-23,-21.17
1992-07-24,2.79
1992-07-25,2.79
1992-07-26,0.22
1992-07-27,0.22
1992-07-28,1.51
1992-07-29,28.09
1992-07-30,28.09
1992-07-31,28.09
1992-08-01,11.09
1992-08-02,11.09
1992-08-03,60.47
1992-08-04,-24.7
1992-08-05,-24.7
1992-08-06,13.79
1992-08-07,13.79
1992-08-08,13.79
1992-08-09,-26.25
1992-08-10,30.25
1992-08-11,30.25
1992-08-12,30.25
1992-08-13,23.68
1992-08-14,23.68
1992-08-15,23.19
1992-08-16,23.19
1992-08-17,23.19
1992-08-18,-12.09
1992-08-19,-12.09
1992-08-20,3.01
1992-08-21,3.01
1992-08-22,4.13
1992-08-23,4.13
1992-08-24,4.13
1992-08-25,4.13
1992-08-26,4.13
1992-08-27,4.13
1992-08-28,4.13
1992-08-29,4.13
1992-08-30,4.13
1992-08-31,4.13
1992-09-01,4.13
1992-09-02,11.09
1992-09-03,11.09
1992-09-04,11.09
1992-09-05,11.09
1992-09-06,11.09
1992-09-07,11.09
1992-09-08,11.09
1992-09-09,11.09
1992-09-10,11.09
1992-09-11,11.09
1992-09-12,11.09
1992-09-13,11.09
1992-09-14,11.09
1992-09-15,11.09
1992-09-16,11.09
1992-09-17,11.09
1992-09-18,11.09
1992-09-19,11.09
1992-09-20,11.09
1992-09-21,11.09
1992-09-22,11.09
1992-09-23,11.09
1992-09-24,11.09
1992-09-25,11.09
1992-09-26,11.09
1992-09-27,11.09
1992-09-28,11.09
1992-09-29,11.09
1992-09-30,11.09
1992-10-01,9.24
1992-10-02,9.24
1992-10-03,9.24
1992-10-04,9.24
1992-10-05,9.24
1992-10-06,9.24
1992-10-07,28.26
1992-10-08,26.53
1992-10-09,26.53
1992-10-10,26.53
1992-10-11,26.53
1992-10-12,26.53
1992-10-13,26.53
1992-10-14,26.53
1992-10-15,26.53
1992-10-16,26.53
1992-10-17,26.53
1992-10-18,26.53
1992-10-19,26.53
1992-10-20,26.53
1992-10-21,26.53
1992-10-22,26.53
1992-10-23,26.53
1992-10-24,26.53
1992-10-25,26.53
1992-10-26,26.53
1992-10-27,26.53
1992-10-28,26.53
1992-10-29,26.53
1992-10-30,26.53
1992-10-31,26.53
1992-11-01,26.53
1992-11-02,26.53
1992-11-03,26.53
1992-11-04,26.53
1992-11-05,26.53
1992-11-06,26.53
1992-11-07,26.53
1992-11-08,26.53
1992-11-09,26.53
1992-11-10,26.53
1992-11-11,26.53
1992-11-12,26.53
1992-11-13,26.53
1992-11-14,26.53
1992-11-15,26.53
1992-11-16,26.53
1992-11-17,26.53
1992-11-18,26.53
1992-11-19,26.53
1992-11-20,26.53
1992-11-21,26.53
1992-11-22,26.53
1992-11-23,26.53
1992-11-24,26.53
1992-11-25,26.53
1992-11-26,26.53
1992-11-27,26.53
1992-11-28,20.76
1992-11-29,20.76
1992-11-30,20.76
1992-12-01,20.76
1992-12-02,20.76
1992-12-03,20.76
1992-12-04,20.76
1992-12-05,20.76
1992-12-06,20.76
1992-12-07,20.76
1992-12-08,20.76
1992-12-09,20.76
1992-12-10,20.76
1992-12-11,20.76
1992-12-12,20.76
1992-12-13,20.76
1992-12-14,20.76
1992-12-15,20.76
1992-12-16,20.76
1992-12-17,20.76
1992-12-18,20.76
1992-12-19,20.76
1992-12-20,20.76
1992-12-21,20.76
1992-12-22,20.76
1992-12-23,20.76
1992-12-24,20.76
1992-12-25,20.76
1992-12-26,20.76
1992-12-27,20.76
1992-12-28,20.76
1992-12-29,20.76
1992-12-30,20.76
1992-12-31,20.76
1993-01-01,113.44
1993-01-02,113.44
1993-01-03,113.44
1993-01-04,113.44
1993-01-05,113.44
1993-01-06,113.44
1993-01-07,113.44
1993-01-08,113.44
1993-01-09,38.82
1993-01-10,38.82
1993-01-11,38.82
1993-01-12,38.82
1993-01-13,38.82
1993-01-14,38.82
1993-01-15,38.82
1993-01-16,38.82
1993-01-17,38.82
1993-01-18,38.82
1993-01-19,38.82
1993-01-20,38.82
1993-01-21,38.82
1993-01-22,38.82
1993-01-23,38.82
1993-01-24,38.82
1993-01-25,38.82
1993-01-26,38.82
1993-01-27,38.82
1993-01-28,26.06
1993-01-29,26.06
1993-01-30,26.06
1993-01-31,26.06
1993-02-01,26.06
1993-02-02,26.06
1993-02-03,26.06
1993-02-04,26.06
1993-02-05,26.06
1993-02-06,26.06
1993-02-07,26.06
1993-02-08,26.06
1993-02-09,26.06
1993-02-10,26.06
1993-02-11,26.06
1993-02-12,26.06
1993-02-13,26.06
1993-02-14,26.06
1993-02-15,26.06
1993-02-16,26.06
1993-02-17,26.06
1993-02-18,26.06
1993-02-19,31.69
1993-02-20,31.69
1993-02-21,31.69
1993-02-22,31.69
1993-02-23,31.69
1993-02-24,31.69
1993-02-25,31.69
1993-02-26,137.62
1993-02-27,137.62
1993-02-28,137.62
1993-03-01,137.62
1993-03-02,137.62
1993-03-03,137.62
1993-03-04,137.62
1993-03-05,137.62
1993-03-06,137.62
1993-03-07,137.62
1993-03-08,137.62
1993-03-09,137.62
1993-03-10,137.62
1993-03-11,137.62
1993-03-12,137.62
1993-03-13,137.62
1993-03-14,137.62
1993-03-15,137.62
1993-03-16,137.62
1993-03-17,137.62
1993-03-18,137.62
1993-03-19,137.62
1993-03-20,137.62
1993-03-21,137.62
1993-03-22,137.62
1993-03-23,137.62
1993-03-24,137.62
1993-03-25,137.62
1993-03-26,137.62
1993-03-27,137.62
1993-03-28,137.62
1993-03-29,137.62
1993-03-30,137.62
1993-03-31,137.62
1993-04-01,137.62
1993-04-02,137.62
1993-04-03,137.62
1993-04-04,137.62
1993-04-05,137.62
1993-04-06,137.62
1993-04-07,137.62
1993-04-08,137.62
1993-04-09,137.62
1993-04-10,137.62
1993-04-11,137.62
1993-04-12,137.62
1993-04-13,137.62
1993-04-14,137.62
1993-04-15,137.62
1993-04-16,137.62
1993-04-17,137.62
1993-04-18,137.62
1993-04-19,137.62
1993-04-20,137.62
1993-04-21,137.62
1993-04-22,137.62
1993-04-23,137.62
1993-04-24,137.62
1993-04-25,137.62
1993-04-26,137.62
1993-04-27,137.62
1993-04-28,137.62
1993-04-29,137.62
1993-04-30,137.62
1993-05-01,137.62
1993-05-02,137.62
1993-05-03,137.62
1993-05-04,137.62
1993-05-05,137.62
1993-05-06,137.62
1993-05-07,137.62
1993-05-08,137.62
1993-05-09,137.62
1993-05-10,137.62
1993-05-11,137.62
1993-05-12,137.62
1993-05-13,137.62
1993-05-14,137.62
1993-05-15,137.62
1993-05-16,137.62
1993-05-17,137.62
1993-05-18,137.62
1993-05-19,137.62
1993-05-20,137.62
1993-05-21,137.62
1993-05-22,137.62
1993-05-23,137.62
1993-05-24,137.62
1993-05-25,137.62
1993-05-26,137.62
1993-05-27,137.62
1993-05-28,137.62
1993-05-29,137.62
1993-05-30,137.62
1993-05-31,137.62
1993-06-01,137.62
1993-06-02,137.62
1993-06-03,137.62
1993-06-04,137.62
1993-06-05,137.62
1993-06-06,137.62
1993-06-07,137.62
1993-06-08,137.62
1993-06-09,137.62
1993-06-10,137.62
1993-06-11,137.62
1993-06-12,137.62
1993-06-13,137.62
1993-06-14,137.62
1993-06-15,137.62
1993-06-16,137.62
1993-06-17,137.62
1993-06-18,137.62
1993-06-19,137.62
1993-06-20,137.62
1993-06-21,137.62
1993-06-22,137.62
1993-06-23,137.62
1993-06-24,137.62
1993-06-25,137.62
1993-06-26,137.62
1993-06-27,137.62
1993-06-28,137.62
1993-06-29,137.62
1993-06-30,137.62
1993-07-01,66.1
1993-07-02,66.1
1993-07-03,66.1
1993-07-04,66.1
1993-07-05,66.1
1993-07-06,23.38
1993-07-07,23.38
1993-07-08,23.38
1993-07-09,23.38
1993-07-10,23.38
1993-07-11,23.38
1993-07-12,23.38
1993-07-13,23.38
1993-07-14,23.38
1993-07-15,23.38
1993-07-16,23.38
1993-07-17,23.38
1993-07-18,23.38
1993-07-19,23.38
1993-07-20,23.38
1993-07-21,23.38
1993-07-22,23.38
1993-07-23,23.38
1993-07-24,23.38
1993-07-25,23.38
1993-07-26,23.38
1993-07-27,23.38
1993-07-28,23.38
1993-07-29,23.38
1993-07-30,23.38
1993-07-31,23.38
1993-08-01,23.38
1993-08-02,23.38
1993-08-03,23.38
1993-08-04,23.38
1993-08-05,23.38
1993-08-06,23.38
1993-08-07,23.38
1993-08-08,23.38
1993-08-09,23.38
1993-08-10,23.38
1993-08-11,23.38
1993-08-12,23.38
1993-08-13,23.38
1993-08-14,23.38
1993-08-15,23.38
1993-08-16,23.38
1993-08-17,4.94
1993-08-18,4.94
1993-08-19,4.94
1993-08-20,4.94
1993-08-21,4.94
1993-08-22,4.94
1993-08-23,4.94
1993-08-24,4.94
1993-08-25,4.94
1993-08-26,15.64
1993-08-27,15.64
1993-08-28,15.64
1993-08-29,15.64
1993-08-30,15.64
1993-08-31,15.64
1993-09-01,15.64
1993-09-02,15.47
1993-09-03,15.47
1993-09-04,15.47
1993-09-05,15.47
1993-09-06,15.47
1993-09-07,15.47
1993-09-08,15.47
1993-09-09,15.47
1993-09-10,15.47
1993-09-11,15.47
1993-09-12,15.47
1993-09-13,15.47
1993-09-14,15.47
1993-09-15,15.47
1993-09-16,15.47
1993-09-17,40.23
1993-09-18,40.23
1993-09-19,40.23
1993-09-20,40.23
1993-09-21,40.23
1993-09-22,40.23
1993-09-23,40.23
1993-09-24,40.23
1993-09-25,40.23
1993-09-26,40.23
1993-09-27,40.23
1993-09-28,40.23
1993-09-29,15.29
1993-09-30,15.29
1993-10-01,15.29
1993-10-02,15.29
1993-10-03,15.29
1993-10-04,15.29
1993-10-05,15.29
1993-10-06,15.29
1993-10-07,15.29
1993-10-08,47.45
1993-10-09,47.45
1993-10-10,47.45
1993-10-11,47.45
1993-10-12,47.45
1993-10-13,47.45
1993-10-14,47.45
1993-10-15,47.45
1993-10-16,47.45
1993-10-17,47.45
1993-10-18,47.45
1993-10-19,47.45
1993-10-20,47.45
1993-10-21,47.45
1993-10-22,47.45
1993-10-23,47.45
1993-10-24,47.45
1993-10-25,47.45
1993-10-26,47.45
1993-10-27,-11.14
1993-10-28,-11.14
1993-10-29,-11.14
1993-10-30,-11.14
1993-10-31,-11.14
1993-11-01,-11.14
1993-11-02,-11.14
1993-11-03,-11.14
1993-11-04,-11.14
1993-11-05,-11.14
1993-11-06,-11.14
1993-11-07,-11.14
1993-11-08,-11.14
1993-11-09,-11.14
1993-11-10,-11.14
1993-11-11,-11.14
1993-11-12,-11.14
1993-11-13,-11.14
1993-11-14,-11.14
1993-11-15,-11.14
1993-11-16,-11.14
1993-11-17,-11.14
1993-11-18,-11.14
1993-11-19,-11.14
1993-11-20,-11.14
1993-11-21,-11.14
1993-11-22,-11.14
1993-11-23,-11.14
1993-11-24,-11.14
1993-11-25,-11.14
1993-11-26,-11.14
1993-11-27,-11.14
1993-11-28,-11.14
1993-11-29,-11.14
1993-11-30,-11.14
1993-12-01,-11.14
1993-12-02,-11.14
1993-12-03,-11.14
1993-12-04,-11.14
1993-12-05,-11.14
1993-12-06,-11.14
1993-12-07,0.0
1993-12-08,0.0
1993-12-09,0.0
1993-12-10,0.0
1993-12-11,0.0
1993-12-12,0.0
1993-12-13,0.0
1993-12-14,0.0
1993-12-15,0.0
1993-12-16,0.0
1993-12-17,0.0
1993-12-18,0.0
1993-12-19,0.0
1993-12-20,0.0
1993-12-21,0.0
1993-12-22,0.0
1993-12-23,0.0
1993-12-24,0.0
1993-12-25,0.0
1993-12-26,0.0
1993-12-27,0.0
1993-12-28,0.0
1993-12-29,0.0
1993-12-30,0.0
1993-12-31,11.99
1994-01-01,11.99
1994-01-02,11.99
1994-01-03,11.99
1994-01-04,11.99
1994-01-05,11.99
1994-01-06,11.99
1994-01-07,11.99
1994-01-08,11.99
1994-01-09,11.99
1994-01-10,11.99
1994-01-11,11.99
1994-01-12,11.99
1994-01-13,11.99
1994-01-14,11.99
1994-01-15,11.99
1994-01-16,11.99
1994-01-17,11.99
1994-01-18,11.99
1994-01-19,11.99
1994-01-20,11.99
1994-01-21,11.99
1994-01-22,11.99
1994-01-23,11.99
1994-01-24,11.99
1994-01-25,11.99
1994-01-26,11.99
1994-01-27,27.12
1994-01-28,27.12
1994-01-29,27.12
1994-01-30,27.12
1994-01-31,27.12
1994-02-01,27.12
1994-02-02,27.12
1994-02-03,27.12
1994-02-04,27.12
1994-02-05,27.12
1994-02-06,27.12
1994-02-07,27.12
1994-02-08,27.12
1994-02-09,27.12
1994-02-10,27.12
1994-02-11,27.12
1994-02-12,27.12
1994-02-13,27.12
1994-02-14,27.12
1994-02-15,27.12
1994-02-16,27.12
1994-02-17,27.12
1994-02-18,27.12
1994-02-19,27.12
1994-02-20,27.12
1994-02-21,27.12
1994-02-22,27.12
1994-02-23,27.12
1994-02-24,47.56
1994-02-25,47.56
1994-02-26,47.56
1994-02-27,47.56
1994-02-28,47.56
1994-03-01,47.56
1994-03-02,47.56
1994-03-03,47.56
1994-03-04,47.56
1994-03-05,47.56
1994-03-06,47.56
1994-03-07,47.56
1994-03-08,47.56
1994-03-09,47.56
1994-03-10,47.56
1994-03-11,47.56
1994-03-12,47.56
1994-03-13,47.56
1994-03-14,47.56
1994-03-15,47.56
1994-03-16,47.56
1994-03-17,180.15
1994-03-18,78.62
1994-03-19,78.62
1994-03-20,78.62
1994-03-21,78.62
1994-03-22,78.62
1994-03-23,78.62
1994-03-24,-1.51
1994-03-25,-1.51
1994-03-26,-1.51
1994-03-27,-1.51
1994-03-28,-1.51
1994-03-29,-1.51
1994-03-30,-1.51
1994-03-31,-1.51
1994-04-01,0.0
1994-04-02,0.0
1994-04-03,0.0
1994-04-04,0.0
1994-04-05,0.0
1994-04-06,0.0
1994-04-07,0.0
1994-04-08,0.0
1994-04-09,0.0
1994-04-10,0.0
1994-04-11,0.0
1994-04-12,0.0
1994-04-13,0.0
1994-04-14,0.0
1994-04-15,0.0
1994-04-16,0.0
1994-04-17,0.0
1994-04-18,0.0
1994-04-19,0.0
1994-04-20,0.0
1994-04-21,0.0
1994-04-22,0.0
1994-04-23,0.0
1994-04-24,0.0
1994-04-25,0.0
1994-04-26,10.0
1994-04-27,10.0
1994-04-28,10.0
1994-04-29,10.0
1994-04-30,10.0
1994-05-01,10.0
1994-05-02,25.0
1994-05-03,25.0
1994-05-04,25.0
1994-05-05,45.0
1994-05-06,45.0
1994-05-07,50.0
1994-05-08,50.0
1994-05-09,50.0
1994-05-10,50.0
1994-05-11,60.0
1994-05-12,60.0
1994-05-13,72.0
1994-05-14,87.0
1994-05-15,92.0
1994-05-16,92.0
1994-05-17,82.0
1994-05-18,82.0
1994-05-19,82.0
1994-05-20,79.0
1994-05-21,79.0
1994-05-22,79.0
1994-05-23,79.0
1994-05-24,79.0
1994-05-25,15.96
1994-05-26,10.84
1994-05-27,6.96
1994-05-28,1.8399999999999999
1994-05-29,1.96
1994-05-30,6.96
1994-05-31,1.8399999999999999
1994-06-01,-8.04
1994-06-02,-8.16
1994-06-03,-8.04
1994-06-04,-17.04
1994-06-05,-12.16
1994-06-06,-12.04
1994-06-07,-12.15
1994-06-08,-11.53
1994-06-09,-1.53
1994-06-10,8.36
1994-06-11,8.47
1994-06-12,19.36
1994-06-13,23.47
1994-06-14,34.98
1994-06-15,34.87
1994-06-16,34.98
1994-06-17,44.87
1994-06-18,44.98
1994-06-19,37.98
1994-06-20,38.38
1994-06-21,39.49
1994-06-22,39.39
1994-06-23,39.49
1994-06-24,39.49
1994-06-25,39.39
1994-06-26,39.49
1994-06-27,24.39
1994-06-28,14.49
1994-06-29,14.49
1994-06-30,14.4
1994-07-01,21.51
1994-07-02,27.41
1994-07-03,28.52
1994-07-04,27.0
1994-07-05,32.9
1994-07-06,33.0
1994-07-07,34.92
1994-07-08,36.03
1994-07-09,23.02
1994-07-10,23.42
1994-07-11,22.52
1994-07-12,22.41
1994-07-13,16.52
1994-07-14,19.54
1994-07-15,14.44
1994-07-16,14.54
1994-07-17,-5.65
1994-07-18,-46.02
1994-07-19,80.0
1994-07-20,35.44
1994-07-21,25.35
1994-07-22,50.54
1994-07-23,51.45
1994-07-24,-30.58
1994-07-25,48.96
1994-07-26,49.56
1994-07-27,49.56
1994-07-28,30.29
1994-07-29,49.56
1994-07-30,49.56
1994-07-31,49.97
1994-08-01,51.56
1994-08-02,-4.93
1994-08-03,-21.56
1994-08-04,34.4
1994-08-05,34.9
1994-08-06,17.76
1994-08-07,36.42
1994-08-08,36.92
1994-08-09,37.42
1994-08-10,44.43
1994-08-11,44.43
1994-08-12,28.8
1994-08-13,45.94
1994-08-14,46.95
1994-08-15,30.82
1994-08-16,31.87
1994-08-17,50.1
1994-08-18,50.1
1994-08-19,66.24
1994-08-20,45.74
1994-08-21,47.25
1994-08-22,45.74
1994-08-23,45.74
1994-08-24,46.25
1994-08-25,46.25
1994-08-26,39.24
1994-08-27,34.75
1994-08-28,24.7
1994-08-29,24.75
1994-08-30,24.75
1994-08-31,25.25
1994-09-01,55.0
1994-09-02,24.72
1994-09-03,65.14
1994-09-04,-30.12
1994-09-05,-48.1
1994-09-06,-47.6
1994-09-07,-45.58
1994-09-08,-31.45
1994-09-09,-70.58
1994-09-10,-70.58
1994-09-11,-65.54
1994-09-12,-65.54
1994-09-13,-65.54
1994-09-14,-65.54
1994-09-15,-63.02
1994-09-16,-63.02
1994-09-17,-57.98
1994-09-18,-46.37
1994-09-19,-57.98
1994-09-20,-57.98
1994-09-21,-53.95
1994-09-22,-52.94
1994-09-23,-115.47
1994-09-24,-12.09
1994-09-25,0.0
1994-09-26,0.0
1994-09-27,0.0
1994-09-28,0.0
1994-09-29,0.0
1994-09-30,0.0
1994-10-01,57.76
1994-10-02,57.76
1994-10-03,57.76
1994-10-04,57.76
1994-10-05,57.76
1994-10-06,57.76
1994-10-07,57.76
1994-10-08,57.76
1994-10-09,57.76
1994-10-10,57.76
1994-10-11,57.76
1994-10-12,57.76
1994-10-13,57.76
1994-10-14,57.76
1994-10-15,57.76
1994-10-16,57.76
1994-10-17,57.76
1994-10-18,57.76
1994-10-19,57.76
1994-10-20,57.76
1994-10-21,57.76
1994-10-22,57.76
1994-10-23,57.76
1994-10-24,57.76
1994-10-25,57.76
1994-10-26,57.76
1994-10-27,57.76
1994-10-28,57.76
1994-10-29,57.76
1994-10-30,57.76
1994-10-31,57.76
1994-11-01,57.76
1994-11-02,57.76
1994-11-03,57.76
1994-11-04,57.76
1994-11-05,57.76
1994-11-06,57.76
1994-11-07,57.76
1994-11-08,57.76
1994-11-09,57.76
1994-11-10,57.76